CW0018 Weather Reports


Display with metric or nautical units.
time (UTC)temp
F
wind
direction
speed
MPH
gust
MPH
rain 1hr
in
rain 24hr
in
rain mn
in
humidity
%
barometer
mb
20190120223026 53 94 0.0 0.0 0.00 0.00 0.00 42 1023.8
20190120221527 53 121 0.0 0.0 0.00 0.00 0.00 42 1023.8
20190120220024 53 120 0.0 0.0 0.00 0.00 0.00 43 1024.0
20190120214558 53 122 0.0 0.0 0.00 0.00 0.00 43 1024.0
20190120213020 52 113 0.0 0.0 0.00 0.00 0.00 42 1023.9
20190120211510 52 116 0.0 0.0 0.00 0.00 0.00 42 1024.5
20190120210007 51 79 0.0 0.0 0.00 0.00 0.00 41 1024.8
20190120204506 51 103 1.0 0.0 0.00 0.00 0.00 42 1024.8
20190120203004 51 74 0.0 0.0 0.00 0.00 0.00 42 1024.9
20190120201614 51 78 0.0 0.0 0.00 0.00 0.00 43 1025.2
20190120200135 50 139 0.0 0.0 0.00 0.00 0.00 46 1025.7
20190120194625 50 101 0.0 0.0 0.00 0.00 0.00 43 1026.0
20190120193206 49 62 0.0 0.0 0.00 0.00 0.00 45 1026.2
20190120191610 48 61 1.0 0.0 0.00 0.00 0.00 47 1026.5
20190120190140 47 93 1.0 0.0 0.00 0.00 0.00 46 1026.9
20190120184604 47 65 2.0 0.0 0.00 0.00 0.00 48 1027.4
20190120183122 46 67 2.0 0.0 0.00 0.00 0.00 50 1027.8
20190120181633 45 73 4.0 0.0 0.00 0.00 0.00 50 1028.0
20190120180121 44 78 4.0 0.0 0.00 0.00 0.00 54 1028.5
20190120174545 43 82 5.0 0.0 0.00 0.00 0.00 55 1028.8
20190120173030 42 70 3.0 0.0 0.00 0.00 0.00 58 1029.0
20190120171536 41 16 2.0 0.0 0.00 0.00 0.00 59 1029.3
20190120170029 40 325 3.0 0.0 0.00 0.00 0.00 60 1029.5
20190120164524 39 45 3.0 0.0 0.00 0.00 0.00 61 1029.6
20190120163022 38 51 3.0 0.0 0.00 0.00 0.00 62 1029.5
20190120161533 38 347 4.0 0.0 0.00 0.00 0.00 64 1029.7
20190120160007 37 29 3.0 0.0 0.00 0.00 0.00 64 1029.7
20190120154507 36 355 4.0 0.0 0.00 0.00 0.00 66 1029.6
20190120153155 35 5 5.0 0.0 0.00 0.00 0.00 68 1029.5
20190120151712 34 343 6.0 0.0 0.00 0.00 0.00 69 1029.2
20190120150157 33 44 4.0 0.0 0.00 0.00 0.00 71 1029.4
20190120144636 33 347 4.0 0.0 0.00 0.00 0.00 72 1029.3
20190120143146 32 18 4.0 0.0 0.00 0.00 0.00 73 1029.2
20190120141633 31 13 1.0 0.0 0.00 0.00 0.00 74 1029.1
20190120140149 30 13 2.0 0.0 0.00 0.00 0.00 74 1029.1
20190120134647 30 15 0.0 0.0 0.00 0.00 0.00 74 1028.6
20190120133111 30 15 1.0 0.0 0.00 0.00 0.00 73 1028.4
20190120131633 31 15 1.0 0.0 0.00 0.00 0.00 73 1028.2
20190120130055 31 16 2.0 0.0 0.00 0.00 0.00 73 1028.2
20190120124553 31 23 1.0 0.0 0.00 0.00 0.00 73 1028.2
20190120123129 31 11 2.0 0.0 0.00 0.00 0.00 72 1028.0
20190120121545 31 360 3.0 0.0 0.00 0.00 0.00 73 1028.2
20190120120137 32 10 2.0 0.0 0.00 0.00 0.00 73 1027.9
20190120114635 32 5 2.0 0.0 0.00 0.00 0.00 72 1027.6
20190120113043 32 5 2.0 0.0 0.00 0.00 0.00 71 1027.9
20190120111601 32 5 2.0 0.0 0.00 0.00 0.00 71 1027.5
20190120110039 33 10 2.0 0.0 0.00 0.00 0.00 70 1027.7
20190120104557 33 347 3.0 0.0 0.00 0.00 0.00 71 1027.6
20190120101544 33 329 2.0 0.0 0.00 0.00 0.00 70 1027.8
20190120100034 34 331 3.0 0.0 0.00 0.00 0.00 70 1027.7
20190120094537 34 322 4.0 0.0 0.00 0.00 0.00 71 1027.6
20190120093034 34 318 4.0 0.0 0.00 0.00 0.00 71 1027.6
20190120091524 34 348 2.0 0.0 0.00 0.00 0.00 71 1027.2
20190120090116 34 317 3.0 0.0 0.00 0.00 0.00 71 1027.5
20190120084514 34 325 4.0 0.0 0.00 0.00 0.00 72 1027.8
20190120083016 33 328 5.0 0.0 0.00 0.00 0.00 72 1027.6
20190120081527 33 340 1.0 0.0 0.00 0.00 0.00 72 1027.6
20190120080013 34 340 0.0 0.0 0.00 0.00 0.00 72 1027.6
20190120074508 34 340 1.0 0.0 0.00 0.00 0.00 72 1027.5
20190120073019 34 341 2.0 0.0 0.00 0.00 0.00 72 1027.1
20190120071503 34 342 1.0 0.0 0.00 0.00 0.00 72 1027.2
20190120070207 35 342 1.0 0.0 0.00 0.00 0.00 72 1027.3
20190120064615 35 342 1.0 0.0 0.00 0.00 0.00 71 1027.0
20190120063158 35 342 1.0 0.0 0.00 0.00 0.00 71 1026.8
20190120061624 36 342 0.0 0.0 0.00 0.00 0.00 70 1026.6
20190120060205 36 342 1.0 0.0 0.00 0.00 0.00 69 1026.7
20190120054706 37 342 2.0 0.0 0.00 0.00 0.00 68 1026.1
20190120053112 37 340 2.0 0.0 0.00 0.00 0.00 67 1026.3
20190120051644 38 342 2.0 0.0 0.00 0.00 0.00 66 1026.0
20190120050154 38 346 2.0 0.0 0.00 0.00 0.00 65 1025.7
20190120044536 39 350 2.0 0.0 0.00 0.00 0.00 64 1025.8
20190120043051 40 355 2.0 0.0 0.00 0.00 0.00 63 1025.3
20190120041538 40 360 1.0 0.0 0.00 0.00 0.00 61 1025.4
20190120040017 41 5 4.0 0.0 0.00 0.00 0.00 60 1025.5
20190120034514 41 360 2.0 0.0 0.00 0.00 0.00 60 1025.5
20190120033008 41 5 3.0 0.0 0.00 0.00 0.00 59 1025.5
20190120031737 42 26 2.0 0.0 0.00 0.00 0.00 59 1025.4
20190120030132 42 355 2.0 0.0 0.00 0.00 0.00 61 1025.3
20190120024708 42 355 2.0 0.0 0.00 0.00 0.00 57 1024.9
20190120023144 43 15 1.0 0.0 0.00 0.00 0.00 54 1024.6
20190120001610 48 331 8.0 0.0 0.00 0.00 0.00 47 1022.2
20190120000156 48 30 7.0 0.0 0.00 0.00 0.00 47 1021.8
20190119234603 49 329 8.0 0.0 0.00 0.00 0.00 46 1021.4
20190119233138 50 350 8.0 0.0 0.00 0.00 0.00 44 1021.1